User: anonymous   Login
Location: Anjeux
(47.8815°N, 6.2076°E)
Time: 05:21:16
(UTC+00:00)
Language:

RS-15 - Orbit

View from above orbital plane
View from above orbital plane
View from above satellite
View from above satellite

Ground track
Ground track

The orbit data is extracted from the following two-line orbital elements,

1 23439U 94085A   21338.89943963 -.00000037  00000-0  15882-3 0  9993
2 23439  64.8126 100.2858 0165281 305.7667  52.7985 11.27570479109550
Epoch (UTC): 04 December 2021 21:35:11
Eccentricity: 0.0165281
inclination: 64.8126°
perigee height: 1883 km
apogee height: 2161 km
right ascension of ascending node: 100.2858°
argument of perigee: 305.7667°
revolutions per day: 11.27570479
mean anomaly at epoch: 52.7985°
orbit number at epoch: 10955

The dashed part of the orbit path shows where the satellite is in the earth's shadow,  

DLR